User: anonymous   Login
Location: Unspecified
(0.0000°N, 0.0000°E)
Time: 12:48:55
(UTC+00:00)
Language:

Geosat - Orbit

View from above orbital plane
View from above orbital plane
View from above satellite
View from above satellite

Ground track
Ground track

The orbit data is extracted from the following two-line orbital elements,

1 15595U 85021A   17229.92463862 -.00000069 +00000-0 +21831-4 0  9997
2 15595 108.0430 223.9129 0002663 275.4086 140.3066 14.38032639698990
Epoch (UTC): 17 August 2017 22:11:28
Eccentricity: 0.0002663
inclination: 108.0430°
perigee height: 763 km
apogee height: 767 km
right ascension of ascending node: 223.9129°
argument of perigee: 275.4086°
revolutions per day: 14.38032639
mean anomaly at epoch: 140.3066°
orbit number at epoch: 69899

The dashed part of the orbit path shows where the satellite is in the earth's shadow,  

DLR